Tracking 18840 objects as of 19-November-2017
HD Live streaming from Space Station
objects crossing your sky now

NOVA 3

Track NOVA 3 now!
10-day predictions
NOVA 3 is classified as:


NORAD ID: 15362
Int'l Code: 1984-110A
Perigee: 1,156.7 km
Apogee: 1,206.1 km
Inclination: 90.1 °
Period: 108.9 minutes
Semi major axis: 7552 km
RCS: 1.829 m2 (large)
Launch date: October 12, 1984
Source: United States (US)
Launch site: AIR FORCE WESTERN TEST RANGE (AFWTR)
aabbcc
Your satellite tracking list
Your tracking list is empty




NASA's NSSDC Master Catalog

Two Line Element Set (TLE):
1 15362U 84110A   17323.32842719  .00000028  00000-0  46280-4 0  9997
2 15362  90.0540  55.5425 0032661 164.1291 259.5330 13.22740755597852
Source of the keplerian elements: AFSPC